Beckley, WV

11:12 AM EST on February 09, 2016 (GMT -0500)
Raleigh County Memorial | | Change Station
CLOSE
Current Station
Airport
Location: Beckley,
Elevation: 2513 ft
Nearby Weather Stations

Elev 2513 ft 37.79 °N, 81.12 °W | Updated 5 minutes ago

Overcast
Overcast
21 °F
Feels Like 11 °F
N
9
Wind Variable Wind from WNW

Today
High -- | Low -- °F
--% Chance of Precip.
Yesterday
High -- | Low -- °F
Precip. -- in
Pressure 29.62 in
Visibility 2.5 miles
Clouds Overcast 1700 ft
Windchill 11 °F
Dew Point 15 °F
Humidity 78%
Rainfall 0.01 in
Snow Depth Not available.
7:21 AM 5:56 PM
New Moon, 2% visible
SPECI KBKW 091607Z AUTO 29008KT 2 1/2SM -SN OVC017 M06/M09 A2962 RMK AO2 P0000 T10611094
Pressure 29.62 in
Visibility 2.5 miles
Clouds Overcast 1700 ft
Windchill 11 °F
Dew Point 15 °F
Humidity 78%
Rainfall 0.01 in
Snow Depth Not available.
7:21 AM 5:56 PM
New Moon, 2% visible
SPECI KBKW 091607Z AUTO 29008KT 2 1/2SM -SN OVC017 M06/M09 A2962 RMK AO2 P0000 T10611094

10-Day Weather Forecast

Almanac

Astronomy

Feb. 09, 2016 Rise Set
Actual Time
Civil Twilight
Nautical Twilight
Astronomical Twilight
Moon
Length of Visible Light
Length of Day
Tomorrow will be .
, % of the Moon is Illuminated

Today's Extremes

State Highs State Lows

Community

WunderPhotos

Upload Photos

1,891,629 photos uploaded!

WunderBlog® & News

Nearby

Air Quality

  Air Quality AQ Index Pollutant
Not available.

Snow Depth

Station Depth Elevation

Earthquake Activity

City Distance Mag. Time & Date
Minimum magnitude displayed is 2.5.

Coastal Water Temperatures

Place Temperature

Stations

Nearby Weather Stations

Station Location Temp. Windchill Dew Point Humidity Wind Precip. Elev Updated Type
                   

Watches & Warnings

Winter Weather Advisory
Issued: 4:54 AM EST Feb. 9, 2016 – National Weather Service

... Winter Weather Advisory remains in effect until 7 am EST
Wednesday...

* hazard types... snow.

* Snow accumulations... 3 to 6 inches.

* Timing... snow showers will be frequent today through tonight but
may even linger into Wednesday.

* Impacts... travel may be difficult at times.Wet snow last night
may make for ice beneath the snow... making the roads that much
more treacherous. Visibilities will be limited at times.

Precautionary/preparedness actions...

A Winter Weather Advisory for snow means that periods of snow
will cause primarily travel difficulties. Be prepared for snow
covered roads and limited visibilities... and use caution while
driving.



Trm